Home > Weather > Durrës > Past weeks

Flag for Albania Past Weather in Durrës, Albania — Yesterday and Last 2 Weeks

Now
79 °F

Sunny.


Feels Like: 79 °F
Forecast: 67 / 75 °F
Wind: 10 mph from West

Location: Tirana Airport

Current Time: May 28, 2016 at 6:06:46 PM

Latest Report: May 28, 2016 at 5:20 PM


Visibility: 10 mi

Pressure: 29.95 "Hg

Humidity: 39%

Dew Point: 52 °F

Location of DurrësLocation

Past Weather in Durrës — Graph

°F

Durrës Temperature Yesterday

Maximum temperature yesterday: 79 °F (at 12:50 PM)
Minimum temperature yesterday: 55 °F (at 5:20 AM)
Average temperature yesterday: 68 °F

High & Low Weather Summary for the Past Weeks

 TemperatureHumidityPressure
High88 °F (May 28, 12:50 PM)100% (May 21, 1:20 AM)30.07 "Hg (May 21, 1:20 AM)
Low48 °F (May 18, 5:50 AM)27% (May 24, 11:50 AM)29.74 "Hg (May 13, 5:20 PM)
Average64 °F67%29.94 "Hg
* Reported May 13 5:20 PM — May 28 5:20 PM, Durrës, Weather by CustomWeather, © 2016

Note: Actual official high and low records may vary slightly from our data, if they occured in-between our weather recording intervals... More about our weather records

Advertising

Durrës Weather History for the Previous 24 Hours

Scroll right to see more
 ConditionsComfort  
Time TempWeatherWind HumidityBarometerVisibility
5:20 PM
Sat, May 28
79 °FSunny.10 mph39%29.95 "Hg10 mi
4:20 PM81 °FSunny.12 mph39%29.95 "Hg10 mi
3:50 PM82 °FSunny.12 mph48%29.95 "Hg10 mi
3:20 PM84 °FPassing clouds.5 mph48%29.95 "HgN/A
2:50 PM84 °FPassing clouds.6 mph45%29.98 "HgN/A
2:20 PM84 °FPassing clouds.7 mph48%29.98 "HgN/A
1:50 PM81 °FPassing clouds.6 mph48%29.98 "HgN/A
1:20 PM84 °FSunny.9 mph48%29.98 "Hg10 mi
12:50 PM88 °FSunny.7 mph43%29.98 "Hg10 mi
12:20 PM86 °FPassing clouds.5 mph40%29.98 "HgN/A
11:50 AM86 °FSunny.3 mph38%29.98 "Hg10 mi
11:20 AM84 °FSunny.3 mph37%29.98 "Hg10 mi
10:50 AM82 °FSunny.3 mph42%29.98 "Hg10 mi
10:20 AM79 °FSunny.No wind42%30.01 "Hg10 mi
9:50 AM75 °FSunny.No wind50%30.01 "Hg10 mi
9:20 AM73 °FSunny.1 mph53%30.01 "Hg10 mi
8:50 AM73 °FSunny.2 mph61%30.01 "Hg10 mi
8:20 AM70 °FSunny.2 mph69%30.01 "Hg10 mi
7:50 AM68 °FPassing clouds.3 mph78%30.01 "HgN/A
7:20 AM66 °FSunny.No wind78%30.01 "Hg10 mi
6:50 AM63 °FSunny.1 mph83%30.01 "Hg10 mi
6:20 AM61 °FSunny.5 mph83%30.01 "Hg10 mi
5:50 AM57 °FClear.5 mph94%30.01 "Hg10 mi
5:20 AM59 °FClear.5 mph88%30.01 "Hg10 mi
4:50 AM59 °FClear.2 mph88%30.01 "Hg10 mi
4:20 AM59 °FClear.2 mph88%30.01 "Hg10 mi
3:50 AM61 °FClear.2 mph83%30.01 "Hg10 mi
3:20 AM61 °FClear.2 mph88%30.01 "Hg10 mi
2:50 AM59 °FClear.2 mph88%30.01 "Hg10 mi
2:20 AM63 °FClear.3 mph77%30.01 "Hg10 mi
1:50 AM61 °FClear.3 mph83%30.01 "Hg10 mi
1:20 AM63 °FClear.3 mph77%30.01 "Hg10 mi
12:50 AM61 °FClear.3 mph77%30.01 "Hg10 mi
12:20 AM63 °FClear.3 mph73%30.01 "Hg10 mi
11:50 PM
Fri, May 27
63 °FClear.5 mph73%30.04 "Hg10 mi
11:20 PM63 °FClear.5 mph73%30.04 "Hg10 mi
10:50 PM64 °FClear.3 mph78%30.04 "Hg10 mi
10:20 PM66 °FClear.3 mph73%30.04 "Hg10 mi
9:50 PM66 °FClear.3 mph73%30.04 "Hg10 mi
9:20 PM68 °FClear.2 mph73%30.04 "Hg10 mi
8:50 PM68 °FSunny.No wind73%30.01 "Hg10 mi
8:20 PM70 °FSunny.5 mph69%30.01 "Hg10 mi
7:50 PM72 °FSunny.3 mph61%30.01 "Hg10 mi
7:20 PM72 °FSunny.6 mph61%30.01 "Hg10 mi
6:50 PM73 °FSunny.8 mph47%30.01 "Hg10 mi
6:20 PM75 °FSunny.9 mph50%30.01 "Hg10 mi
Weather by CustomWeather, © 2016

See weather overviewHow to use our weather pages